Year,Month,Day,Hour,Minute,Value (Times are PST for temperature in C)
2014,04,12,00,00,7.60
2014,04,12,00,01,7.60
2014,04,12,00,02,7.60
2014,04,12,00,03,7.60
2014,04,12,00,04,7.60
2014,04,12,00,05,7.60
2014,04,12,00,06,7.50
2014,04,12,00,07,7.50
2014,04,12,00,08,7.50
2014,04,12,00,09,7.40
2014,04,12,00,10,7.40
2014,04,12,00,11,7.40
2014,04,12,00,12,7.40
2014,04,12,00,13,7.40
2014,04,12,00,14,7.40
2014,04,12,00,15,7.30
2014,04,12,00,16,7.30
2014,04,12,00,17,7.30
2014,04,12,00,18,7.30
2014,04,12,00,19,7.30
2014,04,12,00,20,7.30
2014,04,12,00,21,7.30
2014,04,12,00,22,7.30
2014,04,12,00,23,7.20
2014,04,12,00,24,7.20
2014,04,12,00,25,7.20
2014,04,12,00,26,7.20
2014,04,12,00,27,7.20
2014,04,12,00,28,7.20
2014,04,12,00,29,7.20
2014,04,12,00,30,7.20
2014,04,12,00,31,7.20
2014,04,12,00,32,7.30
2014,04,12,00,33,7.30
2014,04,12,00,34,7.20
2014,04,12,00,35,7.20
2014,04,12,00,36,7.20
2014,04,12,00,37,7.20
2014,04,12,00,38,7.20
2014,04,12,00,39,7.20
2014,04,12,00,40,7.20
2014,04,12,00,41,7.20
2014,04,12,00,42,7.20
2014,04,12,00,43,7.20
2014,04,12,00,44,7.20
2014,04,12,00,45,7.20
2014,04,12,00,46,7.10
2014,04,12,00,47,7.10
2014,04,12,00,48,7.10
2014,04,12,00,49,7.10
2014,04,12,00,50,7.10
2014,04,12,00,51,7.10
2014,04,12,00,52,7.10
2014,04,12,00,53,7.10
2014,04,12,00,54,7.10
2014,04,12,00,55,7.10
2014,04,12,00,56,7.10
2014,04,12,00,57,7.10
2014,04,12,00,58,7.10
2014,04,12,00,59,7.10
2014,04,12,01,00,7.10
2014,04,12,01,01,7.10
2014,04,12,01,02,7.20
2014,04,12,01,03,7.20
2014,04,12,01,04,7.20
2014,04,12,01,05,7.20
2014,04,12,01,06,7.20
2014,04,12,01,07,7.20
2014,04,12,01,08,7.20
2014,04,12,01,09,7.20
2014,04,12,01,10,7.20
2014,04,12,01,11,7.20
2014,04,12,01,12,7.20
2014,04,12,01,13,7.20
2014,04,12,01,14,7.20
2014,04,12,01,15,7.20
2014,04,12,01,16,7.20
2014,04,12,01,17,7.20
2014,04,12,01,18,7.20
2014,04,12,01,19,7.30
2014,04,12,01,20,7.30
2014,04,12,01,21,7.30
2014,04,12,01,22,7.30
2014,04,12,01,23,7.30
2014,04,12,01,24,7.30
2014,04,12,01,25,7.30
2014,04,12,01,26,7.30
2014,04,12,01,27,7.30
2014,04,12,01,28,7.30
2014,04,12,01,29,7.20
2014,04,12,01,30,7.30
2014,04,12,01,31,7.30
2014,04,12,01,32,7.30
2014,04,12,01,33,7.30
2014,04,12,01,34,7.30
2014,04,12,01,35,7.30
2014,04,12,01,36,7.30
2014,04,12,01,37,7.30
2014,04,12,01,38,7.30
2014,04,12,01,39,7.30
2014,04,12,01,40,7.30
2014,04,12,01,41,7.30
2014,04,12,01,42,7.30
2014,04,12,01,43,7.30
2014,04,12,01,44,7.30
2014,04,12,01,45,7.30
2014,04,12,01,46,7.30
2014,04,12,01,47,7.30
2014,04,12,01,48,7.30
2014,04,12,01,49,7.30
2014,04,12,01,50,7.30
2014,04,12,01,51,7.20
2014,04,12,01,52,7.20
2014,04,12,01,53,7.20
2014,04,12,01,54,7.20
2014,04,12,01,55,7.20
2014,04,12,01,56,7.20
2014,04,12,01,57,7.20
2014,04,12,01,58,7.20
2014,04,12,01,59,7.20
2014,04,12,02,00,7.20
2014,04,12,02,01,7.20
2014,04,12,02,02,7.20
2014,04,12,02,03,7.20
2014,04,12,02,04,7.20
2014,04,12,02,05,7.20
2014,04,12,02,06,7.20
2014,04,12,02,07,7.20
2014,04,12,02,08,7.20
2014,04,12,02,09,7.20
2014,04,12,02,10,7.20
2014,04,12,02,11,7.20
2014,04,12,02,12,7.20
2014,04,12,02,13,7.20
2014,04,12,02,14,7.20
2014,04,12,02,15,7.20
2014,04,12,02,16,7.20
2014,04,12,02,17,7.20
2014,04,12,02,18,7.20
2014,04,12,02,19,7.20
2014,04,12,02,20,7.20
2014,04,12,02,21,7.20
2014,04,12,02,22,7.10
2014,04,12,02,23,7.10
2014,04,12,02,24,7.10
2014,04,12,02,25,7.00
2014,04,12,02,26,7.00
2014,04,12,02,27,7.00
2014,04,12,02,28,7.00
2014,04,12,02,29,6.90
2014,04,12,02,30,6.90
2014,04,12,02,31,7.00
2014,04,12,02,32,7.00
2014,04,12,02,33,7.00
2014,04,12,02,34,7.00
2014,04,12,02,35,7.00
2014,04,12,02,36,7.00
2014,04,12,02,37,7.10
2014,04,12,02,38,7.10
2014,04,12,02,39,7.10
2014,04,12,02,40,7.10
2014,04,12,02,41,7.10
2014,04,12,02,42,7.20
2014,04,12,02,43,7.20
2014,04,12,02,44,7.20
2014,04,12,02,45,7.20
2014,04,12,02,46,7.20
2014,04,12,02,47,7.20
2014,04,12,02,48,7.20
2014,04,12,02,49,7.20
2014,04,12,02,50,7.20
2014,04,12,02,51,7.20
2014,04,12,02,52,7.20
2014,04,12,02,53,7.20
2014,04,12,02,54,7.20
2014,04,12,02,55,7.20
2014,04,12,02,56,7.20
2014,04,12,02,57,7.20
2014,04,12,02,58,7.20
2014,04,12,02,59,7.20
2014,04,12,03,00,7.20
2014,04,12,03,01,7.10
2014,04,12,03,02,7.10
2014,04,12,03,03,7.10
2014,04,12,03,04,7.10
2014,04,12,03,05,7.10
2014,04,12,03,06,7.10
2014,04,12,03,07,7.10
2014,04,12,03,08,7.10
2014,04,12,03,09,7.10
2014,04,12,03,10,7.20
2014,04,12,03,11,7.20
2014,04,12,03,12,7.20
2014,04,12,03,13,7.20
2014,04,12,03,14,7.20
2014,04,12,03,15,7.20
2014,04,12,03,16,7.20
2014,04,12,03,17,7.20
2014,04,12,03,18,7.20
2014,04,12,03,19,7.20
2014,04,12,03,20,7.20
2014,04,12,03,21,7.20
2014,04,12,03,22,7.20
2014,04,12,03,23,7.20
2014,04,12,03,24,7.20
2014,04,12,03,25,7.10
2014,04,12,03,26,7.10
2014,04,12,03,27,7.10
2014,04,12,03,28,7.10
2014,04,12,03,29,7.10
2014,04,12,03,30,7.00
2014,04,12,03,31,7.00
2014,04,12,03,32,7.00
2014,04,12,03,33,6.90
2014,04,12,03,34,6.90
2014,04,12,03,35,6.90
2014,04,12,03,36,6.90
2014,04,12,03,37,6.80
2014,04,12,03,38,6.80
2014,04,12,03,39,6.80
2014,04,12,03,40,6.80
2014,04,12,03,41,6.70
2014,04,12,03,42,6.70
2014,04,12,03,43,6.70
2014,04,12,03,44,6.70
2014,04,12,03,45,6.70
2014,04,12,03,46,6.70
2014,04,12,03,47,6.60
2014,04,12,03,48,6.60
2014,04,12,03,49,6.60
2014,04,12,03,50,6.60
2014,04,12,03,51,6.60
2014,04,12,03,52,6.60
2014,04,12,03,53,6.60
2014,04,12,03,54,6.60
2014,04,12,03,55,6.60
2014,04,12,03,56,6.60
2014,04,12,03,57,6.50
2014,04,12,03,58,6.50
2014,04,12,03,59,6.50
2014,04,12,04,00,6.50
2014,04,12,04,01,6.50
2014,04,12,04,02,6.40
2014,04,12,04,03,6.40
2014,04,12,04,04,6.40
2014,04,12,04,05,6.40
2014,04,12,04,06,6.40
2014,04,12,04,07,6.40
2014,04,12,04,08,6.40
2014,04,12,04,09,6.30
2014,04,12,04,10,6.30
2014,04,12,04,11,6.30
2014,04,12,04,12,6.30
2014,04,12,04,13,6.30
2014,04,12,04,14,6.30
2014,04,12,04,15,6.30
2014,04,12,04,16,6.30
2014,04,12,04,17,6.30
2014,04,12,04,18,6.30
2014,04,12,04,19,6.30
2014,04,12,04,20,6.30
2014,04,12,04,21,6.30
2014,04,12,04,22,6.30
2014,04,12,04,23,6.40
2014,04,12,04,24,6.40
2014,04,12,04,25,6.40
2014,04,12,04,26,6.40
2014,04,12,04,27,6.40
2014,04,12,04,28,6.40
2014,04,12,04,29,6.40
2014,04,12,04,30,6.40
2014,04,12,04,31,6.40
2014,04,12,04,32,6.40
2014,04,12,04,33,6.40
2014,04,12,04,34,6.40
2014,04,12,04,35,6.40
2014,04,12,04,36,6.40
2014,04,12,04,37,6.40
2014,04,12,04,38,6.30
2014,04,12,04,39,6.30
2014,04,12,04,40,6.30
2014,04,12,04,41,6.30
2014,04,12,04,42,6.30
2014,04,12,04,43,6.30
2014,04,12,04,44,6.30
2014,04,12,04,45,6.30
2014,04,12,04,46,6.30
2014,04,12,04,47,6.30
2014,04,12,04,48,6.30
2014,04,12,04,49,6.30
2014,04,12,04,50,6.30
2014,04,12,04,51,6.30
2014,04,12,04,52,6.30
2014,04,12,04,53,6.30
2014,04,12,04,54,6.20
2014,04,12,04,55,6.20
2014,04,12,04,56,6.20
2014,04,12,04,57,6.20
2014,04,12,04,58,6.20
2014,04,12,04,59,6.10
2014,04,12,05,00,6.10
2014,04,12,05,01,6.10
2014,04,12,05,02,6.00
2014,04,12,05,03,6.00
2014,04,12,05,04,6.00
2014,04,12,05,05,5.90
2014,04,12,05,06,6.00
2014,04,12,05,07,6.00
2014,04,12,05,08,6.00
2014,04,12,05,09,6.00
2014,04,12,05,10,6.00
2014,04,12,05,11,6.10
2014,04,12,05,12,6.10
2014,04,12,05,13,6.10
2014,04,12,05,14,6.10
2014,04,12,05,15,6.10
2014,04,12,05,16,6.10
2014,04,12,05,17,6.10
2014,04,12,05,18,6.00
2014,04,12,05,19,6.00
2014,04,12,05,20,6.00
2014,04,12,05,21,6.00
2014,04,12,05,22,5.90
2014,04,12,05,23,5.90
2014,04,12,05,24,5.90
2014,04,12,05,25,5.90
2014,04,12,05,26,5.80
2014,04,12,05,27,5.80
2014,04,12,05,28,5.80
2014,04,12,05,29,5.70
2014,04,12,05,30,5.70
2014,04,12,05,31,5.60
2014,04,12,05,32,5.50
2014,04,12,05,33,5.50
2014,04,12,05,34,5.40
2014,04,12,05,35,5.40
2014,04,12,05,36,5.30
2014,04,12,05,37,5.30
2014,04,12,05,38,5.30
2014,04,12,05,39,5.20
2014,04,12,05,40,5.20
2014,04,12,05,41,5.20
2014,04,12,05,42,5.10
2014,04,12,05,43,5.10
2014,04,12,05,44,5.10
2014,04,12,05,45,5.10
2014,04,12,05,46,5.00
2014,04,12,05,47,5.00
2014,04,12,05,48,4.90
2014,04,12,05,49,4.90
2014,04,12,05,50,4.90
2014,04,12,05,51,4.90
2014,04,12,05,52,4.90
2014,04,12,05,53,4.90
2014,04,12,05,54,4.90
2014,04,12,05,55,4.90
2014,04,12,05,56,4.90
2014,04,12,05,57,4.80
2014,04,12,05,58,4.80
2014,04,12,05,59,4.80
2014,04,12,06,00,4.80
2014,04,12,06,01,4.80
2014,04,12,06,02,4.80
2014,04,12,06,03,4.70
2014,04,12,06,04,4.70
2014,04,12,06,05,4.70
2014,04,12,06,06,4.80
2014,04,12,06,07,4.70
2014,04,12,06,08,4.70
2014,04,12,06,09,4.70
2014,04,12,06,10,4.70
2014,04,12,06,11,4.80
2014,04,12,06,12,4.80
2014,04,12,06,13,4.80
2014,04,12,06,14,4.80
2014,04,12,06,15,4.90
2014,04,12,06,16,5.00
2014,04,12,06,17,5.00
2014,04,12,06,18,5.10
2014,04,12,06,19,5.10
2014,04,12,06,20,5.10
2014,04,12,06,21,5.10
2014,04,12,06,22,5.10
2014,04,12,06,23,5.20
2014,04,12,06,24,5.20
2014,04,12,06,25,5.30
2014,04,12,06,26,5.30
2014,04,12,06,27,5.30
2014,04,12,06,28,5.40
2014,04,12,06,29,5.40
2014,04,12,06,30,5.50
2014,04,12,06,31,5.60
2014,04,12,06,32,5.60
2014,04,12,06,33,5.50
2014,04,12,06,34,5.50
2014,04,12,06,35,5.30
2014,04,12,06,36,5.20
2014,04,12,06,37,5.20
2014,04,12,06,38,5.10
2014,04,12,06,39,5.00
2014,04,12,06,40,5.00
2014,04,12,06,41,4.90
2014,04,12,06,42,4.80
2014,04,12,06,43,4.80
2014,04,12,06,44,4.70
2014,04,12,06,45,4.60
2014,04,12,06,46,4.60
2014,04,12,06,47,4.50
2014,04,12,06,48,4.50
2014,04,12,06,49,4.40
2014,04,12,06,50,4.40
2014,04,12,06,51,4.30
2014,04,12,06,52,4.30
2014,04,12,06,53,4.30
2014,04,12,06,54,4.30
2014,04,12,06,55,4.20
2014,04,12,06,56,4.20
2014,04,12,06,57,4.20
2014,04,12,06,58,4.10
2014,04,12,06,59,4.10
2014,04,12,07,00,4.10
2014,04,12,07,01,4.10
2014,04,12,07,02,4.10
2014,04,12,07,03,4.00
2014,04,12,07,04,4.00
2014,04,12,07,05,4.00
2014,04,12,07,06,4.00
2014,04,12,07,07,4.00
2014,04,12,07,08,3.90
2014,04,12,07,09,3.90
2014,04,12,07,10,3.90
2014,04,12,07,11,3.90
2014,04,12,07,12,3.90
2014,04,12,07,13,3.90
2014,04,12,07,14,3.90
2014,04,12,07,15,3.90
2014,04,12,07,16,3.90
2014,04,12,07,17,3.90
2014,04,12,07,18,3.90
2014,04,12,07,19,3.90
2014,04,12,07,20,4.00
2014,04,12,07,21,4.00
2014,04,12,07,22,4.10
2014,04,12,07,23,4.10
2014,04,12,07,24,4.10
2014,04,12,07,25,4.10
2014,04,12,07,26,4.10
2014,04,12,07,27,4.10
2014,04,12,07,28,4.10
2014,04,12,07,29,4.10
2014,04,12,07,30,4.20
2014,04,12,07,31,4.20
2014,04,12,07,32,4.20
2014,04,12,07,33,4.20
2014,04,12,07,34,4.30
2014,04,12,07,35,4.30
2014,04,12,07,36,4.30
2014,04,12,07,37,4.30
2014,04,12,07,38,4.40
2014,04,12,07,39,4.40
2014,04,12,07,40,4.40
2014,04,12,07,41,4.50
2014,04,12,07,42,4.50
2014,04,12,07,43,4.50
2014,04,12,07,44,4.50
2014,04,12,07,45,4.60
2014,04,12,07,46,4.60
2014,04,12,07,47,4.60
2014,04,12,07,48,4.60
2014,04,12,07,49,4.70
2014,04,12,07,50,4.70
2014,04,12,07,51,4.70
2014,04,12,07,52,4.80
2014,04,12,07,53,4.80
2014,04,12,07,54,4.80
2014,04,12,07,55,4.80
2014,04,12,07,56,4.80
2014,04,12,07,57,4.90
2014,04,12,07,58,4.90
2014,04,12,07,59,4.90
2014,04,12,08,00,4.90
2014,04,12,08,01,4.90
2014,04,12,08,02,5.00
2014,04,12,08,03,5.00
2014,04,12,08,04,5.10
2014,04,12,08,05,5.10
2014,04,12,08,06,5.10
2014,04,12,08,07,5.10
2014,04,12,08,08,5.10
2014,04,12,08,09,5.10
2014,04,12,08,10,5.10
2014,04,12,08,11,5.20
2014,04,12,08,12,5.20
2014,04,12,08,13,5.20
2014,04,12,08,14,5.30
2014,04,12,08,15,5.30
2014,04,12,08,16,5.30
2014,04,12,08,17,5.40
2014,04,12,08,18,5.40
2014,04,12,08,19,5.50
2014,04,12,08,20,5.60
2014,04,12,08,21,5.60
2014,04,12,08,22,5.70
2014,04,12,08,23,5.70
2014,04,12,08,24,5.80
2014,04,12,08,25,5.90
2014,04,12,08,26,6.00
2014,04,12,08,27,6.10
2014,04,12,08,28,6.20
2014,04,12,08,29,6.30
2014,04,12,08,30,6.50
2014,04,12,08,31,6.60
2014,04,12,08,32,6.80
2014,04,12,08,33,6.90
2014,04,12,08,34,7.00
2014,04,12,08,35,7.20
2014,04,12,08,36,7.20
2014,04,12,08,37,7.40
2014,04,12,08,38,7.50
2014,04,12,08,39,7.60
2014,04,12,08,40,7.80
2014,04,12,08,41,7.90
2014,04,12,08,42,8.00
2014,04,12,08,43,8.10
2014,04,12,08,44,8.20
2014,04,12,08,45,8.30
2014,04,12,08,46,8.40
2014,04,12,08,47,8.50
2014,04,12,08,48,8.60
2014,04,12,08,49,8.70
2014,04,12,08,50,8.80
2014,04,12,08,51,8.80
2014,04,12,08,52,8.90
2014,04,12,08,53,9.00
2014,04,12,08,54,9.00
2014,04,12,08,55,9.10
2014,04,12,08,56,9.20
2014,04,12,08,57,9.20
2014,04,12,08,58,9.30
2014,04,12,08,59,9.30
2014,04,12,09,00,9.30
2014,04,12,09,01,9.30
2014,04,12,09,02,9.30
2014,04,12,09,03,9.30
2014,04,12,09,04,9.30
2014,04,12,09,05,9.30
2014,04,12,09,06,9.30
2014,04,12,09,07,9.30
2014,04,12,09,08,9.30
2014,04,12,09,09,9.30
2014,04,12,09,10,9.30
2014,04,12,09,11,9.30
2014,04,12,09,12,9.30
2014,04,12,09,13,9.30
2014,04,12,09,14,9.30
2014,04,12,09,15,9.30
2014,04,12,09,16,9.30
2014,04,12,09,17,9.20
2014,04,12,09,18,9.30
2014,04,12,09,19,9.30
2014,04,12,09,20,9.30
2014,04,12,09,21,9.30
2014,04,12,09,22,9.30
2014,04,12,09,23,9.30
2014,04,12,09,24,9.30
2014,04,12,09,25,9.30
2014,04,12,09,26,9.30
2014,04,12,09,27,9.40
2014,04,12,09,28,9.40
2014,04,12,09,29,9.50
2014,04,12,09,30,9.50
2014,04,12,09,31,9.60
2014,04,12,09,32,9.70
2014,04,12,09,33,9.80
2014,04,12,09,34,9.90
2014,04,12,09,35,9.90
2014,04,12,09,36,10.00
2014,04,12,09,37,10.10
2014,04,12,09,38,10.10
2014,04,12,09,39,10.10
2014,04,12,09,40,10.00
2014,04,12,09,41,10.00
2014,04,12,09,42,10.00
2014,04,12,09,43,10.00
2014,04,12,09,44,10.00
2014,04,12,09,45,10.00
2014,04,12,09,46,10.10
2014,04,12,09,47,10.10
2014,04,12,09,48,10.10
2014,04,12,09,49,10.10
2014,04,12,09,50,10.10
2014,04,12,09,51,10.00
2014,04,12,09,52,10.00
2014,04,12,09,53,9.90
2014,04,12,09,54,9.90
2014,04,12,09,55,9.80
2014,04,12,09,56,9.80
2014,04,12,09,57,9.80
2014,04,12,09,58,9.80
2014,04,12,09,59,9.90
2014,04,12,10,00,10.00
2014,04,12,10,01,10.00
2014,04,12,10,02,10.10
2014,04,12,10,03,10.10
2014,04,12,10,04,10.10
2014,04,12,10,05,10.10
2014,04,12,10,06,10.10
2014,04,12,10,07,10.20
2014,04,12,10,08,10.20
2014,04,12,10,09,10.20
2014,04,12,10,10,10.20
2014,04,12,10,11,10.20
2014,04,12,10,12,10.30
2014,04,12,10,13,10.40
2014,04,12,10,14,10.50
2014,04,12,10,15,10.50
2014,04,12,10,16,10.60
2014,04,12,10,17,10.60
2014,04,12,10,18,10.60
2014,04,12,10,19,10.60
2014,04,12,10,20,10.70
2014,04,12,10,21,10.80
2014,04,12,10,22,10.90
2014,04,12,10,23,11.00
2014,04,12,10,24,11.10
2014,04,12,10,25,11.10
2014,04,12,10,26,11.00
2014,04,12,10,27,11.00
2014,04,12,10,28,10.90
2014,04,12,10,29,10.80
2014,04,12,10,30,10.80
2014,04,12,10,31,10.80
2014,04,12,10,32,10.80
2014,04,12,10,33,10.80
2014,04,12,10,34,10.90
2014,04,12,10,35,11.00
2014,04,12,10,36,11.00
2014,04,12,10,37,11.10
2014,04,12,10,38,11.20
2014,04,12,10,39,11.20
2014,04,12,10,40,11.30
2014,04,12,10,41,11.30
2014,04,12,10,42,11.30
2014,04,12,10,43,11.30
2014,04,12,10,44,11.30
2014,04,12,10,45,11.30
2014,04,12,10,46,11.20
2014,04,12,10,47,11.20
2014,04,12,10,48,11.20
2014,04,12,10,49,11.20
2014,04,12,10,50,11.20
2014,04,12,10,51,11.20
2014,04,12,10,52,11.10
2014,04,12,10,53,11.10
2014,04,12,10,54,11.20
2014,04,12,10,55,11.20
2014,04,12,10,56,11.30
2014,04,12,10,57,11.30
2014,04,12,10,58,11.30
2014,04,12,10,59,11.30
2014,04,12,11,00,11.40
2014,04,12,11,01,11.40
2014,04,12,11,02,11.50
2014,04,12,11,03,11.50
2014,04,12,11,04,11.50
2014,04,12,11,05,11.40
2014,04,12,11,06,11.40
2014,04,12,11,07,11.40
2014,04,12,11,08,11.40
2014,04,12,11,09,11.40
2014,04,12,11,10,11.50
2014,04,12,11,11,11.50
2014,04,12,11,12,11.50
2014,04,12,11,13,11.60
2014,04,12,11,14,11.60
2014,04,12,11,15,11.80
2014,04,12,11,16,11.80
2014,04,12,11,17,11.90
2014,04,12,11,18,11.80
2014,04,12,11,19,11.70
2014,04,12,11,20,11.60
2014,04,12,11,21,11.60
2014,04,12,11,22,11.60
2014,04,12,11,23,11.60
2014,04,12,11,24,11.60
2014,04,12,11,25,11.60
2014,04,12,11,26,11.50
2014,04,12,11,27,11.50
2014,04,12,11,28,11.40
2014,04,12,11,29,11.30
2014,04,12,11,30,11.30
2014,04,12,11,31,11.30
2014,04,12,11,32,11.30
2014,04,12,11,33,11.30
2014,04,12,11,34,11.30
2014,04,12,11,35,11.30
2014,04,12,11,36,11.40
2014,04,12,11,37,11.50
2014,04,12,11,38,11.60
2014,04,12,11,39,11.60
2014,04,12,11,40,11.70
2014,04,12,11,41,11.80
2014,04,12,11,42,11.90
2014,04,12,11,43,11.90
2014,04,12,11,44,12.00
2014,04,12,11,45,12.10
2014,04,12,11,46,12.20
2014,04,12,11,47,12.20
2014,04,12,11,48,12.20
2014,04,12,11,49,12.20
2014,04,12,11,50,12.10
2014,04,12,11,51,12.10
2014,04,12,11,52,12.00
2014,04,12,11,53,12.10
2014,04,12,11,54,12.00
2014,04,12,11,55,11.90
2014,04,12,11,56,11.90
2014,04,12,11,57,11.90
2014,04,12,11,58,12.00
2014,04,12,11,59,12.10
2014,04,12,12,00,12.10
2014,04,12,12,01,12.20
2014,04,12,12,02,12.20
2014,04,12,12,03,12.20
2014,04,12,12,04,12.20
2014,04,12,12,05,12.20
2014,04,12,12,06,12.20
2014,04,12,12,07,12.20
2014,04,12,12,08,12.20
2014,04,12,12,09,12.20
2014,04,12,12,10,12.20
2014,04,12,12,11,12.30
2014,04,12,12,12,12.30
2014,04,12,12,13,12.40
2014,04,12,12,14,12.40
2014,04,12,12,15,12.30
2014,04,12,12,16,12.20
2014,04,12,12,17,12.00
2014,04,12,12,18,12.00
2014,04,12,12,19,11.90
2014,04,12,12,20,11.90
2014,04,12,12,21,11.80
2014,04,12,12,22,11.80
2014,04,12,12,23,11.90
2014,04,12,12,24,12.00
2014,04,12,12,25,12.00
2014,04,12,12,26,12.00
2014,04,12,12,27,12.10
2014,04,12,12,28,12.20
2014,04,12,12,29,12.20
2014,04,12,12,30,12.20
2014,04,12,12,31,12.20
2014,04,12,12,32,12.20
2014,04,12,12,33,12.10
2014,04,12,12,34,12.10
2014,04,12,12,35,12.10
2014,04,12,12,36,12.10
2014,04,12,12,37,12.10
2014,04,12,12,38,12.10
2014,04,12,12,39,12.10
2014,04,12,12,40,12.10
2014,04,12,12,41,12.10
2014,04,12,12,42,12.10
2014,04,12,12,43,12.20
2014,04,12,12,44,12.20
2014,04,12,12,45,12.30
2014,04,12,12,46,12.30
2014,04,12,12,47,12.40
2014,04,12,12,48,12.50
2014,04,12,12,49,12.50
2014,04,12,12,50,12.60
2014,04,12,12,51,12.60
2014,04,12,12,52,12.60
2014,04,12,12,53,12.60
2014,04,12,12,54,12.60
2014,04,12,12,55,12.50
2014,04,12,12,56,12.40
2014,04,12,12,57,12.40
2014,04,12,12,58,12.30
2014,04,12,12,59,12.30
2014,04,12,13,00,12.30
2014,04,12,13,01,12.40
2014,04,12,13,02,12.40
2014,04,12,13,03,12.40
2014,04,12,13,04,12.40
2014,04,12,13,05,12.40
2014,04,12,13,06,12.40
2014,04,12,13,07,12.50
2014,04,12,13,08,12.60
2014,04,12,13,09,12.70
2014,04,12,13,10,12.70
2014,04,12,13,11,12.80
2014,04,12,13,12,12.80
2014,04,12,13,13,12.90
2014,04,12,13,14,12.90
2014,04,12,13,15,12.90
2014,04,12,13,16,13.00
2014,04,12,13,17,13.00
2014,04,12,13,18,13.10
2014,04,12,13,19,13.20
2014,04,12,13,20,13.30
2014,04,12,13,21,13.40
2014,04,12,13,22,13.40
2014,04,12,13,23,13.50
2014,04,12,13,24,13.60
2014,04,12,13,25,13.60
2014,04,12,13,26,13.60
2014,04,12,13,27,13.60
2014,04,12,13,28,13.60
2014,04,12,13,29,13.60
2014,04,12,13,30,13.60
2014,04,12,13,31,13.60
2014,04,12,13,32,13.60
2014,04,12,13,33,13.50
2014,04,12,13,34,13.50
2014,04,12,13,35,13.50
2014,04,12,13,36,13.60
2014,04,12,13,37,13.60
2014,04,12,13,38,13.70
2014,04,12,13,39,13.60
2014,04,12,13,40,13.60
2014,04,12,13,41,13.70
2014,04,12,13,42,13.70
2014,04,12,13,43,13.70
2014,04,12,13,44,13.70
2014,04,12,13,45,13.70
2014,04,12,13,46,13.70
2014,04,12,13,47,13.70
2014,04,12,13,48,13.70
2014,04,12,13,49,13.70
2014,04,12,13,50,13.70
2014,04,12,13,51,13.70
2014,04,12,13,52,13.80
2014,04,12,13,53,13.80
2014,04,12,13,54,13.70
2014,04,12,13,55,13.70
2014,04,12,13,56,13.70
2014,04,12,13,57,13.70
2014,04,12,13,58,13.80
2014,04,12,13,59,13.90
2014,04,12,14,00,13.80
2014,04,12,14,01,13.80
2014,04,12,14,02,13.80
2014,04,12,14,03,13.90
2014,04,12,14,04,13.90
2014,04,12,14,05,13.90
2014,04,12,14,06,14.00
2014,04,12,14,07,14.00
2014,04,12,14,08,14.10
2014,04,12,14,09,14.10
2014,04,12,14,10,14.20
2014,04,12,14,11,14.20
2014,04,12,14,12,14.30
2014,04,12,14,13,14.30
2014,04,12,14,14,14.30
2014,04,12,14,15,14.40
2014,04,12,14,16,14.40
2014,04,12,14,17,14.40
2014,04,12,14,18,14.40
2014,04,12,14,19,14.40
2014,04,12,14,20,14.40
2014,04,12,14,21,14.40
2014,04,12,14,22,14.40
2014,04,12,14,23,14.50
2014,04,12,14,24,14.50
2014,04,12,14,25,14.50
2014,04,12,14,26,14.50
2014,04,12,14,27,14.50
2014,04,12,14,28,14.60
2014,04,12,14,29,14.70
2014,04,12,14,30,14.90
2014,04,12,14,31,15.00
2014,04,12,14,32,15.00
2014,04,12,14,33,15.00
2014,04,12,14,34,15.00
2014,04,12,14,35,15.00
2014,04,12,14,36,15.10
2014,04,12,14,37,15.10
2014,04,12,14,38,15.10
2014,04,12,14,39,15.00
2014,04,12,14,40,15.00
2014,04,12,14,41,15.00
2014,04,12,14,42,14.90
2014,04,12,14,43,15.00
2014,04,12,14,44,15.00
2014,04,12,14,45,15.00
2014,04,12,14,46,15.00
2014,04,12,14,47,15.00
2014,04,12,14,48,15.00
2014,04,12,14,49,15.00
2014,04,12,14,50,14.90
2014,04,12,14,51,14.70
2014,04,12,14,52,14.70
2014,04,12,14,53,14.70
2014,04,12,14,54,14.70
2014,04,12,14,55,14.80
2014,04,12,14,56,14.90
2014,04,12,14,57,15.00
2014,04,12,14,58,15.00
2014,04,12,14,59,15.00
2014,04,12,15,00,15.00
2014,04,12,15,01,15.00
2014,04,12,15,02,15.00
2014,04,12,15,03,15.10
2014,04,12,15,04,15.20
2014,04,12,15,05,15.20
2014,04,12,15,06,15.30
2014,04,12,15,07,15.40
2014,04,12,15,08,15.60
2014,04,12,15,09,15.70
2014,04,12,15,10,15.80
2014,04,12,15,11,15.80
2014,04,12,15,12,15.80
2014,04,12,15,13,15.70
2014,04,12,15,14,15.70
2014,04,12,15,15,15.50
2014,04,12,15,16,15.40
2014,04,12,15,17,15.40
2014,04,12,15,18,15.30
2014,04,12,15,19,15.30
2014,04,12,15,20,15.30
2014,04,12,15,21,15.30
2014,04,12,15,22,15.20
2014,04,12,15,23,15.00
2014,04,12,15,24,15.00
2014,04,12,15,25,14.90
2014,04,12,15,26,14.80
2014,04,12,15,27,14.80
2014,04,12,15,28,14.90
2014,04,12,15,29,15.00
2014,04,12,15,30,15.00
2014,04,12,15,31,15.00
2014,04,12,15,32,15.00
2014,04,12,15,33,15.00
2014,04,12,15,34,15.00
2014,04,12,15,35,15.00
2014,04,12,15,36,15.00
2014,04,12,15,37,15.00
2014,04,12,15,38,15.20
2014,04,12,15,39,15.20
2014,04,12,15,40,15.30
2014,04,12,15,41,15.40
2014,04,12,15,42,15.40
2014,04,12,15,43,15.40
2014,04,12,15,44,15.40
2014,04,12,15,45,15.40
2014,04,12,15,46,15.30
2014,04,12,15,47,15.40
2014,04,12,15,48,15.50
2014,04,12,15,49,15.60
2014,04,12,15,50,15.80
2014,04,12,15,51,15.90
2014,04,12,15,52,16.00
2014,04,12,15,53,16.10
2014,04,12,15,54,16.00
2014,04,12,15,55,15.90
2014,04,12,15,56,15.80
2014,04,12,15,57,15.70
2014,04,12,15,58,15.60
2014,04,12,15,59,15.50
2014,04,12,16,00,15.50
2014,04,12,16,01,15.50
2014,04,12,16,02,15.50
2014,04,12,16,03,15.60
2014,04,12,16,04,15.50
2014,04,12,16,05,15.50
2014,04,12,16,06,15.60
2014,04,12,16,07,15.60
2014,04,12,16,08,15.70
2014,04,12,16,09,15.90
2014,04,12,16,10,16.00
2014,04,12,16,11,16.00
2014,04,12,16,12,15.90
2014,04,12,16,13,15.90
2014,04,12,16,14,15.90
2014,04,12,16,15,15.90
2014,04,12,16,16,15.90
2014,04,12,16,17,15.90
2014,04,12,16,18,15.90
2014,04,12,16,19,15.90
2014,04,12,16,20,15.90
2014,04,12,16,21,15.90
2014,04,12,16,22,15.80
2014,04,12,16,23,15.60
2014,04,12,16,24,15.50
2014,04,12,16,25,15.30
2014,04,12,16,26,15.30
2014,04,12,16,27,15.20
2014,04,12,16,28,15.10
2014,04,12,16,29,15.00
2014,04,12,16,30,15.00
2014,04,12,16,31,14.90
2014,04,12,16,32,14.70
2014,04,12,16,33,14.60
2014,04,12,16,34,14.70
2014,04,12,16,35,14.70
2014,04,12,16,36,14.60
2014,04,12,16,37,14.60
2014,04,12,16,38,14.70
2014,04,12,16,39,14.70
2014,04,12,16,40,14.60
2014,04,12,16,41,14.70
2014,04,12,16,42,14.70
2014,04,12,16,43,14.80
2014,04,12,16,44,14.80
2014,04,12,16,45,14.80
2014,04,12,16,46,14.70
2014,04,12,16,47,14.60
2014,04,12,16,48,14.60
2014,04,12,16,49,14.60
2014,04,12,16,50,14.60
2014,04,12,16,51,14.60
2014,04,12,16,52,14.50
2014,04,12,16,53,14.50
2014,04,12,16,54,14.60
2014,04,12,16,55,14.60
2014,04,12,16,56,14.70
2014,04,12,16,57,14.70
2014,04,12,16,58,14.60
2014,04,12,16,59,14.60
2014,04,12,17,00,14.70
2014,04,12,17,01,14.70
2014,04,12,17,02,14.70
2014,04,12,17,03,14.70
2014,04,12,17,04,14.70
2014,04,12,17,05,14.70
2014,04,12,17,06,14.70
2014,04,12,17,07,14.70
2014,04,12,17,08,14.70
2014,04,12,17,09,14.70
2014,04,12,17,10,14.70
2014,04,12,17,11,14.60
2014,04,12,17,12,14.60
2014,04,12,17,13,14.70
2014,04,12,17,14,14.60
2014,04,12,17,15,14.60
2014,04,12,17,16,14.70
2014,04,12,17,17,14.80
2014,04,12,17,18,14.70
2014,04,12,17,19,14.70
2014,04,12,17,20,14.70
2014,04,12,17,21,14.70
2014,04,12,17,22,14.70
2014,04,12,17,23,14.70
2014,04,12,17,24,14.70
2014,04,12,17,25,14.70
2014,04,12,17,26,14.70
2014,04,12,17,27,14.70
2014,04,12,17,28,14.70
2014,04,12,17,29,14.60
2014,04,12,17,30,14.60
2014,04,12,17,31,14.60
2014,04,12,17,32,14.50
2014,04,12,17,33,14.50
2014,04,12,17,34,14.50
2014,04,12,17,35,14.40
2014,04,12,17,36,14.30
2014,04,12,17,37,14.30
2014,04,12,17,38,14.30
2014,04,12,17,39,14.30
2014,04,12,17,40,14.20
2014,04,12,17,41,14.30
2014,04,12,17,42,14.30
2014,04,12,17,43,14.40
2014,04,12,17,44,14.40